FW1358 Weather Reports


time (UTC)temp
C
wind
direction
speed
KPH
gust
KPH
rain 1hr
cm
rain 24hr
cm
rain mn
cm
humidity
%
barometer
mb
20260509082306 12 242 0.0 0.0 0.00 0.00 0.00 83 1010.7
20260509081303 12 242 0.0 0.0 0.00 0.00 0.00 83 1010.8
20260509075306 12 242 0.0 0.0 0.00 0.00 0.00 82 1010.8
20260509074803 12 242 0.0 0.0 0.00 0.00 0.00 82 1010.7
20260509073303 12 242 0.0 0.0 0.00 0.00 0.00 80 1010.8
20260509072804 12 242 0.0 0.0 0.00 0.00 0.00 80 1010.9
20260509071804 13 242 0.0 0.0 0.00 0.00 0.00 80 1011.0
20260509071303 13 242 0.0 0.0 0.00 0.00 0.00 80 1011.2
20260509070803 13 242 0.0 0.0 0.00 0.00 0.00 80 1011.2
20260509070304 13 242 0.0 0.0 0.00 0.00 0.00 80 1011.1
20260509065804 13 242 0.0 0.0 0.00 0.00 0.00 79 1011.2
20260509065306 13 242 0.0 0.0 0.00 0.00 0.00 79 1011.2
20260509064804 13 242 0.0 0.0 0.00 0.00 0.00 78 1011.4
20260509063804 13 242 0.0 0.0 0.00 0.00 0.00 78 1011.6
20260509062804 13 242 0.0 0.0 0.00 0.00 0.00 77 1011.4
20260509060304 13 242 0.0 0.0 0.00 0.00 0.00 75 1011.6
20260509055306 13 242 0.0 0.0 0.00 0.00 0.00 75 1011.5
20260509054303 14 242 0.0 0.0 0.00 0.00 0.00 75 1011.7
20260509053804 14 242 0.0 0.0 0.00 0.00 0.00 74 1011.8
20260509053304 14 242 0.0 0.0 0.00 0.00 0.00 74 1011.8
20260509052306 14 242 0.0 0.0 0.00 0.00 0.00 73 1011.9
20260509051804 14 242 0.0 0.0 0.00 0.00 0.00 73 1012.0
20260509051304 14 242 0.0 0.0 0.00 0.00 0.00 72 1011.9
20260509050304 15 242 0.0 0.0 0.00 0.00 0.00 72 1011.8
20260509045306 15 242 0.0 0.0 0.00 0.00 0.00 71 1011.8
20260509044803 15 242 0.0 0.0 0.00 0.00 0.00 71 1011.9
20260509044304 15 242 0.0 0.0 0.00 0.00 0.00 71 1012.1
20260509043303 15 242 0.0 0.0 0.00 0.00 0.00 70 1012.1
20260509042803 15 242 0.0 0.0 0.00 0.00 0.00 69 1012.2
20260509041804 15 242 0.0 0.0 0.00 0.00 0.00 68 1012.2
20260509041304 15 242 0.0 1.6 0.00 0.00 0.00 68 1012.2
20260509040804 15 242 0.0 1.6 0.00 0.00 0.00 68 1012.0
20260509035803 15 219 0.0 0.0 0.00 0.00 0.00 66 1012.1
20260509033303 16 219 0.0 0.0 0.00 0.00 0.00 63 1012.5
20260509032804 16 219 0.0 0.0 0.00 0.00 0.00 61 1012.4
20260509031803 16 219 0.0 0.0 0.00 0.00 0.00 60 1012.4
20260509031303 16 219 0.0 0.0 0.00 0.00 0.00 60 1012.3
20260509030804 16 219 0.0 0.0 0.00 0.00 0.00 60 1012.3
20260509030303 16 219 0.0 0.0 0.00 0.00 0.00 59 1012.3
20260509025306 16 219 0.0 0.0 0.00 0.00 0.00 58 1012.4
20260509024804 16 219 0.0 0.0 0.00 0.00 0.00 57 1012.3
20260509023804 17 219 0.0 0.0 0.00 0.00 0.00 57 1012.3
20260509022803 17 219 0.0 0.0 0.00 0.00 0.00 56 1012.3
20260509021803 17 219 0.0 0.0 0.00 0.00 0.00 56 1012.3
20260509021303 17 219 0.0 0.0 0.00 0.00 0.00 54 1012.3
20260509020803 17 219 0.0 0.0 0.00 0.00 0.00 53 1012.2
20260509015803 17 219 0.0 0.0 0.00 0.00 0.00 54 1012.2
20260509015306 17 219 0.0 0.0 0.00 0.00 0.00 53 1012.2
20260509014804 17 219 0.0 0.0 0.00 0.00 0.00 53 1012.1
20260509014303 18 219 0.0 0.0 0.00 0.00 0.00 52 1012.2
20260509013803 18 219 0.0 0.0 0.00 0.00 0.00 53 1012.2
20260509013304 18 219 0.0 0.0 0.00 0.00 0.00 52 1012.1
20260509012804 18 219 0.0 0.0 0.00 0.00 0.00 52 1012.0
20260509011804 18 219 0.0 0.0 0.00 0.00 0.00 53 1011.9
20260509011304 18 219 0.0 0.0 0.00 0.00 0.00 52 1011.9
20260509010804 19 219 0.0 0.0 0.00 0.00 0.00 51 1011.9
20260509010304 19 219 0.0 0.0 0.00 0.00 0.00 50 1011.9
20260509005804 20 219 0.0 0.0 0.00 0.00 0.00 50 1011.9
20260509005306 20 219 0.0 0.0 0.00 0.00 0.00 49 1011.9
20260509004304 20 219 0.0 0.0 0.00 0.00 0.00 48 1011.9
20260509002804 20 219 0.0 0.0 0.00 0.00 0.00 47 1012.0
20260509002306 21 219 0.0 0.0 0.00 0.00 0.00 44 1011.9
20260509000803 21 219 0.0 0.0 0.00 0.00 0.00 44 1011.9
20260509000304 21 219 0.0 0.0 0.00 0.00 0.00 43 1011.9
20260508232306 22 219 0.0 0.0 0.00 0.00 0.00 39 1012.4
20260508230304 22 219 0.0 0.0 0.00 0.00 0.00 39 1012.4
20260508225306 22 219 0.0 0.0 0.00 0.00 0.00 39 1012.4
20260508224803 22 219 0.0 0.0 0.00 0.00 0.00 37 1012.4
20260508224304 22 219 0.0 0.0 0.00 0.00 0.00 37 1012.3
20260508223804 23 219 0.0 0.0 0.00 0.00 0.00 34 1012.3
20260508223303 23 219 0.0 0.0 0.00 0.00 0.00 37 1012.3
20260508222804 23 219 0.0 0.0 0.00 0.00 0.00 35 1012.3
20260508221803 23 219 0.0 0.0 0.00 0.00 0.00 32 1012.2
20260508220804 24 219 0.0 0.0 0.00 0.00 0.00 31 1012.3
20260508220304 24 219 0.0 0.0 0.00 0.00 0.00 33 1012.3
20260508214803 24 219 0.0 1.6 0.00 0.00 0.00 35 1012.4
20260508213303 25 314 0.0 1.6 0.00 0.00 0.00 33 1012.6
20260508205306 25 313 0.0 0.0 0.00 0.00 0.00 33 1012.8
20260508204804 25 313 0.0 0.0 0.00 0.00 0.00 32 1012.8
20260508204304 25 313 0.0 0.0 0.00 0.00 0.00 32 1012.9
20260508203803 25 313 0.0 1.6 0.00 0.00 0.00 34 1012.9
20260508201803 25 132 0.0 0.0 0.00 0.00 0.00 31 1013.0
20260508201304 24 132 0.0 0.0 0.00 0.00 0.00 34 1013.1
20260508200804 24 132 0.0 1.6 0.00 0.00 0.00 35 1013.2
20260508195803 24 340 0.0 0.0 0.00 0.00 0.00 34 1013.4
20260508195306 24 340 0.0 0.0 0.00 0.00 0.00 35 1013.4
20260508192804 25 338 0.0 0.0 0.00 0.00 0.00 32 1013.9
20260508192306 25 338 0.0 1.6 0.00 0.00 0.00 32 1014.0
20260508191804 25 338 0.0 1.6 0.00 0.00 0.00 32 1014.1
20260508190804 25 333 0.0 1.6 0.00 0.00 0.00 35 1014.2
20260508184303 25 277 0.0 0.0 0.00 0.00 0.00 35 1014.6
20260508183803 25 277 0.0 0.0 0.00 0.00 0.00 34 1014.7
20260508182306 24 277 0.0 0.0 0.00 0.00 0.00 33 1015.0
20260508181803 23 277 0.0 0.0 0.00 0.00 0.00 34 1015.0
20260508181304 23 277 0.0 0.0 0.00 0.00 0.00 31 1015.1
20260508175803 23 277 0.0 0.0 0.00 0.00 0.00 32 1015.4
20260508174303 23 277 0.0 4.8 0.00 0.00 0.00 32 1015.8
20260508173304 23 202 0.0 0.0 0.00 0.00 0.00 34 1015.9
20260508165804 22 181 0.0 0.0 0.00 0.00 0.00 35 1016.3
20260508164304 21 181 0.0 0.0 0.00 0.00 0.00 36 1016.7
20260508163804 21 181 0.0 0.0 0.00 0.00 0.00 35 1016.8
20260508163304 21 181 0.0 0.0 0.00 0.00 0.00 35 1016.8
20260508160803 21 211 0.0 0.0 0.00 0.00 0.00 34 1017.1
20260508155306 20 211 0.0 0.0 0.00 0.00 0.00 37 1017.4
20260508153802 20 211 0.0 0.0 0.00 0.00 0.00 39 1017.6
20260508153302 19 211 0.0 0.0 0.00 0.00 0.00 43 1017.5
20260508152305 18 211 0.0 0.0 0.00 0.00 0.00 49 1017.6
20260508151303 18 211 0.0 0.0 0.00 0.00 0.00 44 1017.9
20260508150302 17 211 0.0 0.0 0.00 0.00 0.00 51 1018.1
20260508145802 17 211 0.0 0.0 0.00 0.00 0.00 53 1018.2
20260508144802 16 211 0.0 0.0 0.00 0.00 0.00 56 1018.3
20260508144303 16 211 0.0 0.0 0.00 0.00 0.00 59 1018.3
20260508142306 14 211 0.0 1.6 0.00 0.00 0.00 64 1018.3
20260508141802 14 211 0.0 1.6 0.00 0.00 0.00 67 1018.4
20260508140802 13 190 0.0 0.0 0.00 0.00 0.00 70 1018.4
20260508135803 12 190 0.0 0.0 0.00 0.00 0.00 73 1018.4
20260508131802 8 201 0.0 0.0 0.00 0.00 0.00 93 1018.4
20260508130302 8 201 0.0 0.0 0.00 0.00 0.00 93 1018.4
20260508123803 7 201 0.0 0.0 0.00 0.00 0.00 92 1018.3
20260508123302 7 201 0.0 0.0 0.00 0.00 0.00 92 1018.2
20260508122802 6 201 0.0 0.0 0.00 0.00 0.00 92 1018.2
20260508121803 6 201 0.0 0.0 0.00 0.00 0.00 91 1018.1
20260508121302 6 201 0.0 0.0 0.00 0.00 0.00 91 1018.0
20260508120803 6 201 0.0 0.0 0.00 0.00 0.00 90 1018.0
20260508120302 6 201 0.0 0.0 0.00 0.00 0.00 91 1018.0
20260508115802 6 201 0.0 0.0 0.00 0.00 0.00 91 1018.1
20260508114302 6 201 0.0 0.0 0.00 0.00 0.00 91 1017.7
20260508112803 6 201 0.0 0.0 0.00 0.00 0.00 90 1017.6
20260508112306 6 201 0.0 0.0 0.00 0.00 0.00 90 1017.6
20260508111802 6 201 0.0 0.0 0.00 0.00 0.00 90 1017.5
20260508111302 6 201 0.0 0.0 0.00 0.00 0.00 90 1017.4
20260508103802 6 201 0.0 0.0 0.00 0.00 0.00 90 1017.0
20260508103302 6 201 0.0 0.0 0.00 0.00 0.00 90 1017.0
20260508101302 6 201 0.0 0.0 0.00 0.00 0.00 89 1017.0
20260508093802 6 201 0.0 0.0 0.00 0.00 0.00 89 1016.8
20260508092312 7 201 0.0 0.0 0.00 0.00 0.00 88 1016.9
20260508091302 7 201 0.0 0.0 0.00 0.03 0.00 87 1016.8
20260508090303 7 201 0.0 0.0 0.00 0.03 0.00 86 1016.8
20260508085803 7 201 0.0 0.0 0.00 0.03 0.00 87 1016.7
20260508085306 7 201 0.0 0.0 0.00 0.03 0.00 87 1016.7
20260508084303 7 201 0.0 0.0 0.00 0.03 0.00 88 1016.6